"Pseudo-MPEC" for 2024-030A = NORAD 58963 = IM-1
Created 2024 Feb 19 3:22:00 UT using Find_Orb
Click here for an explanation of pseudo-MPECs
Astrometry:
2024-030A C2024 02 15.89895706 54 56.59 +16 54 20.4 x15.0 GV L54
2024-030A C2024 02 15.90261606 55 02.09 +16 55 39.1 x14.7 GV L54
2024-030A C2024 02 15.90575006 55 06.82 +16 56 45.3 x14.3 GV L54
2024-030A C2024 02 15.90888806 55 11.67 +16 57 50.4 x14.2 GV L54
2024-030A C2024 02 15.91254306 55 17.39 +16 59 05.6 x16.3 GV L54
Nova-C C2024 02 16.09250 07 12 47.35 +18 29 36.4 15.7 GU V16
Nova-C C2024 02 16.09524 07 12 48.03 +18 30 44.2 14.7 GU V16
Nova-C C2024 02 16.09825 07 12 48.66 +18 31 57.2 14.8 GU V16
Nova-C C2024 02 16.10127 07 12 49.19 +18 33 09.4 15.3 GU V16
Nova-C C2024 02 16.10428 07 12 49.62 +18 34 20.8 15.9 GU V16
Nova-C C2024 02 16.10731 07 12 50.03 +18 35 30.7 15.5 GU V16
Nova-C CK240216:02383886 07 13 02.909+18 35 04.16 15.1 GV V17
Nova-C C2024 02 16.11032 07 12 50.29 +18 36 40.8 15.6 GU V16
Nova-C KCK240216:02402211 07 13 03.062+18 35 31.92 15.7 GV V17
Nova-C CK240216:02420492 07 13 03.209+18 35 59.28 15.6 GV V17
Nova-C C2024 02 16.11334 07 12 50.46 +18 37 49.4 15.3 GU V16
Nova-C CK240216:02435308 07 13 03.322+18 36 28.33 x15.8 GV V17
Nova-C KCK240216:02435849 07 13 03.334+18 36 29.70 15.3 GV V17
Nova-C CK240216:02454127 07 13 03.442+18 36 56.99 15.7 GV V17
Nova-C CK240216:02472920 07 13 03.554+18 37 25.43 15.6 GV V17
Nova-C C2024 02 16.11634 07 12 50.55 +18 38 56.3 15.7 GU V16
Nova-C KCK240216:02474006 07 13 03.564+18 37 28.27 15.6 GV V17
Nova-C CK240216:02491733 07 13 03.641+18 37 53.69 16.0 GV V17
Nova-C CK240216:04471661 07 12 48.175+19 03 10.80 14.8 GV V17
Nova-C CK240216:04494190 07 12 47.638+19 03 34.78 15.3 GV V17
Nova-C CK240216:04520640 07 12 47.107+19 03 58.57 15.4 GV V17
Nova-C CK240216:04543080 07 12 46.584+19 04 21.94 14.8 GV V17
Nova-C CK240216:04564961 07 12 46.080+19 04 44.26 15.3 GV V17
2024-030A KC2024 02 16.31751 07 13 04.85 +19 12 57.7 15.5 GX U94
2024-030A KC2024 02 16.34777 07 13 18.81 +19 15 30.2 15.3 GX U94
Nova-C CK240216:08572338 07 13 08.249+19 24 24.59 16.5 GV V17
Nova-C CK240216:08584340 07 13 09.091+19 24 26.24 16.5 GV V17
Nova-C CK240216:08594741 07 13 09.766+19 24 27.68 16.5 GV V17
2024-030A KC2024 02 16.37911 07 13 41.07 +19 17 06.0 x15.6 GX U94
Odysseus2 B2024 02 16.70690007 29 05.101+20 42 24.87 16.1 GV M44
Odysseus2 B2024 02 16.70702507 29 05.029+20 42 26.06 16.0 GV M44
Odysseus2 B2024 02 16.70715107 29 04.932+20 42 27.48 16.2 GV M44
Odysseus2 B2024 02 16.70727707 29 04.841+20 42 28.70 16.4 GV M44
Odysseus2 B2024 02 16.70740207 29 04.758+20 42 30.03 16.3 GV M44
Odysseus2 B2024 02 16.70752807 29 04.652+20 42 31.35 16.3 GV M44
Odysseus2 B2024 02 16.70765307 29 04.571+20 42 32.68 16.5 GV M44
Odysseus2 B2024 02 16.70777907 29 04.482+20 42 34.05 16.4 GV M44
Odysseus2 B2024 02 16.70790407 29 04.342+20 42 35.53 16.4 GV M44
Odysseus2 B2024 02 16.70803007 29 04.290+20 42 36.42 16.4 GV M44
Odysseus2 B2024 02 16.70815607 29 04.210+20 42 37.54 16.5 GV M44
Odysseus2 B2024 02 16.70828107 29 04.101+20 42 39.34 16.4 GV M44
Odysseus2 B2024 02 16.70840707 29 04.011+20 42 40.67 16.4 GV M44
Odysseus2 B2024 02 16.70853207 29 03.917+20 42 42.00 16.4 GV M44
Odysseus2 B2024 02 16.70865807 29 03.816+20 42 43.26 16.7 GV M44
Odysseus2 B2024 02 16.70878307 29 03.729+20 42 44.38 16.7 GV M44
Odysseus2 B2024 02 16.70890907 29 03.607+20 42 45.60 16.6 GV M44
Odysseus2 B2024 02 16.70903507 29 03.527+20 42 47.27 16.9 GV M44
Odysseus2 B2024 02 16.70916007 29 03.430+20 42 48.27 17.0 GV M44
Odysseus2 B2024 02 16.70928607 29 03.334+20 42 49.31 16.7 GV M44
Odysseus2 B2024 02 16.70941107 29 03.216+20 42 51.05 16.8 GV M44
Odysseus2 B2024 02 16.70953707 29 03.116+20 42 52.04 16.7 GV M44
Odysseus2 B2024 02 16.70966307 29 03.034+20 42 53.55 16.8 GV M44
Odysseus2 B2024 02 16.70978807 29 02.961+20 42 55.26 16.5 GV M44
Odysseus2 B2024 02 16.70991407 29 02.861+20 42 55.66 16.7 GV M44
Odysseus2 B2024 02 16.71003907 29 02.782+20 42 57.69 16.5 GV M44
Odysseus2 B2024 02 16.71016407 29 02.625+20 42 58.52 16.8 GV M44
Odysseus2 B2024 02 16.71029007 29 02.596+20 42 59.81 16.9 GV M44
Odysseus2 B2024 02 16.71041507 29 02.474+20 43 01.81 16.8 GV M44
Odysseus2 B2024 02 16.71054107 29 02.378+20 43 02.37 16.7 GV M44
2024-030A C2024 02 16.96644907 30 04.25 +20 37 19.7 x17.2 GV L54
2024-030A C2024 02 16.97134807 30 04.91 +20 37 28.1 16.5 GV L54
2024-030A C2024 02 16.97622907 30 05.77 +20 37 33.8 16.4 GV L54
2024-030A C2024 02 16.98111407 30 06.80 +20 37 38.6 16.6 GV L54
2024-030A C2024 02 16.98599707 30 08.03 +20 37 42.7 16.6 GV L54
IM-1 K K240216:2343180 07 34 44.448+22 11 25.19 16.1 VZ Y05
2024-030A C2024 02 16.99089107 30 09.37 +20 37 46.3 16.6 GV L54
IM-1 K K240216:2347129 07 34 42.096+22 11 46.28 16.6 VZ Y05
IM-1 K K240216:2351079 07 34 39.701+22 12 06.12 16.3 VZ Y05
2024-030A C2024 02 16.99618307 30 11.08 +20 37 49.1 16.8 GV L54
IM-1 K K240216:2355029 07 34 37.310+22 12 25.81 16.4 VZ Y05
IM-1 K K240216:2358460 07 34 35.030+22 12 43.78 17.6 VZ Y05
IM-1 K K240217:0002175 07 34 32.815+22 13 00.70 17.1 VZ Y05
2024-030A C2024 02 17.00228707 30 13.33 +20 37 51.3 17.0 GV L54
IM-1 K K240217:0005493 07 34 30.662+22 13 17.04 16.2 VZ Y05
2024-030A C2024 02 17.01126407 30 17.08 +20 37 53.8 16.8 GV L54
Station data:
(L54) Berthelot Observatory, Hunedoara (N45.616531 E22.888780) Romania.
Observers A. Sonka, A. Nedelcu. Measurer A. Sonka. 0.50-m f/8 RC + CCD.
(M44) Al-Khatim Observatory, Abu Dhabi (N24.219595 E54.920310) United Arab
Emirates. Observer M. Odeh. 0.36-m f/7.7 SC + CMO.
(U94) iTelescope Observatory, Beryl Junction (N37.737780 W113.697500)
US/Utah. Observer J. Jahn. 0.10-m f/5 refractor + CCD.
(V16) Dark Sky New Mexico, Animas (N31.946942 W108.897120) US/New Mexico.
Observer D. Crowson. 0.30-m f/8.0 Ritchey-Chrétien + CCD.
(V17) Leo Observatory, Tucson (N32.373978 W111.016810) US/Arizona.
Observers V. Reddy, L. Le Corre. Measurer V. Reddy.
(Y05) SONEAR Wykrota-CEAMIG, Serra da Piedade (S19.824251 W43.690000)
Brazil. Observers C. Jacques, A. Caetano, E. Pimentel. Measurer C.
Jacques. 0.45-m f/2.9 reflector + CMO.
Orbital elements: 2024-030A = NORAD 58963 = IM-1
Perigee 2024 Feb 15.2836063 +/- 5.65e-5 TT = 6:48:23.58 (JD 2460355.7836063)
Epoch 2024 Feb 16.0 TT = JDT 2460356.5 Find_Orb
M 22.9459510404 +/- 0.0041 (J2000 equator)
n 32.0298057493 +/- 0.00358 Peri. 239.7673477 +/- 0.0006
a211950.26780 +/- 15.8 Node 67.8282283 +/- 0.00053
e 0.968878013 +/- 3.71e-6 Incl. 28.6723959 +/- 0.00023
P 11.2393d H 28.95 G 0.15 U 9.0
q 6596.3134085 +/- 0.448 Q 417304.22219 +/- 31.8
72 of 80 observations 2024 Feb. 16-17 (22.1 hr); mean residual 0".339
